Sherman Airfield (FLV)
Ft Leavenworth, KS
Field Elevation: 772
Lat: 39°22.10N  Long: 94°54.89W
CTAF/Unicom Freq: 126.2000
   
    
Weather Advisories
7/31/2014 19:34 Z
Altimeter 30.09" Hg
Wind 130° @ 0 KT
Gusts --
Visibility 10 SM
Temperature 27° C (81° F)
Dewpoint 14° C (57° F)
Relative Humidity 45%
Density Altitude 2,100 feet
Condensation Altitude 7,200 feet
Heat Index 27° C (81° F)
  Wind and Runways
Indicated Runway = 16
History
 
 
More Info
All DigiWx sites map
Weather Radar
NOAA Forecast
 
Airport IQ 5010
(K68) Garnett Municipal
(GRE) Greenville
 
about DigiWx
 
FAA Disclaimer: The data displayed is for advisory purposes only and is not to be used for flight planning or operations. For official data, please call (not available) to hear the current automated AWOS voice message.
  METAR FLV 311934Z AUTO 13000KT 10SM 27/14 A3009